User: anonymous   Login
Location: Berg
(47.2344°N, 9.5296°E)
Time: 04:13:59
(UTC+00:00)
Language:

Cosmos-2242 - Orbit

View from above orbital plane
View from above orbital plane
View from above satellite
View from above satellite

Ground track
Ground track

The orbit data is extracted from the following two-line orbital elements,

1 22626U 93024A   21101.91706795  .00000203  00000-0  19268-4 0  9990
2 22626  82.5229 166.4688 0019366 165.2976 194.8809 14.88106278513236
Epoch (UTC): 11 April 2021 22:00:34
Eccentricity: 0.0019366
inclination: 82.5229°
perigee height: 590 km
apogee height: 617 km
right ascension of ascending node: 166.4688°
argument of perigee: 165.2976°
revolutions per day: 14.88106278
mean anomaly at epoch: 194.8809°
orbit number at epoch: 51323

The dashed part of the orbit path shows where the satellite is in the earth's shadow,  

DLR